Weather History for Macomb, IL

Change the Weather History Date:

Saturday, November 24, 2012

  Actual Average (KBRL) Record (KBRL)
Temperature  
Mean Temperature 24 °F 38 °F  
Max Temperature 30 °F 47 °F 68 °F (1915)
Min Temperature 17 °F 29 °F 0 °F (1950)
Degree Days  
Heating Degree Days 42 27  
Month to date heating degree days 506  
Since 1 July heating degree days 900  
Cooling Degree Days 0 0  
Month to date cooling degree days 0  
Year to date cooling degree days 1206  
Moisture  
Dew Point 19 °F    
Average Humidity 75    
Maximum Humidity 89    
Minimum Humidity 63    
Precipitation  
Precipitation 0.00 in 0.08 in 0.98 in (2001)
Month to date precipitation 1.99  
Year to date precipitation 35.88  
Sea Level Pressure  
Sea Level Pressure 30.21 in    
Wind  
Wind Speed 9 mph (WSW)    
Max Wind Speed 13 mph    
Max Gust Speed -    
Visibility 10 miles    
Events      
T = Trace of Precipitation, MM = Missing Value Source: NWS Daily Summary

Daily Weather History Graph

Daily Weather History Graph

Search for Another Location

Airport:

Trip Planner

Search our weather history database for the weather conditions in past years. The results will help you decide how hot, cold, wet, or windy it might be!

Date:

Astronomy

Nov. 24, 2012 Rise Set
Actual Time 6:59 AM CST 4:38 PM CST
Civil Twilight 6:29 AM CST 5:08 PM CST
Nautical Twilight 5:56 AM CST 5:42 PM CST
Astronomical Twilight 5:23 AM CST 6:14 PM CST
Moon 2:24 PM CST (11/24) 3:16 AM CST (11/24)
Length of Visible Light 10h 38m
Length of Day
9h 39m
Waxing Gibbous, 87% of the Moon is Illuminated
Nov 24
Waxing Gibbous
Nov 28
Full
Dec 6
Last Quarter
Dec 13
New
Dec 19
First Quarter

Hourly Weather History & Observations

Time (CST) Temp. Windchill Dew Point Humidity Pressure Visibility Wind Dir Wind Speed Gust Speed Precip Events Conditions
12:15 AM 23.7 °F 12.1 °F 16.7 °F 75% 30.33 in 10.0 mi NW 12.7 mph - N/A   Clear
12:35 AM 23.0 °F 11.7 °F 17.1 °F 78% 30.33 in 10.0 mi NW 11.5 mph - N/A   Clear
12:55 AM 22.3 °F 12.2 °F 16.7 °F 79% 30.33 in 10.0 mi WNW 9.2 mph - N/A   Clear
1:15 AM 22.1 °F 11.3 °F 16.7 °F 80% 30.32 in 10.0 mi NW 10.4 mph - N/A   Clear
1:35 AM 21.6 °F 10.6 °F 16.5 °F 81% 30.33 in 10.0 mi NW 10.4 mph - N/A   Clear
1:55 AM 22.1 °F 11.3 °F 16.2 °F 78% 30.33 in 10.0 mi NW 10.4 mph - N/A   Clear
2:15 AM 21.2 °F 10.1 °F 16.3 °F 82% 30.33 in 10.0 mi NW 10.4 mph - N/A   Clear
2:35 AM 20.7 °F 11.0 °F 16.2 °F 83% 30.34 in 10.0 mi WNW 8.1 mph - N/A   Clear
2:55 AM 20.7 °F 10.2 °F 15.8 °F 81% 30.33 in 10.0 mi WNW 9.2 mph - N/A   Clear
3:15 AM 20.1 °F 10.3 °F 15.8 °F 83% 30.32 in 10.0 mi NW 8.1 mph - N/A   Clear
3:35 AM 19.9 °F 9.3 °F 15.8 °F 84% 30.32 in 10.0 mi NW 9.2 mph - N/A   Clear
3:55 AM 19.6 °F 10.6 °F 15.6 °F 85% 30.32 in 10.0 mi WNW 6.9 mph - N/A   Clear
4:15 AM 18.3 °F 9.1 °F 14.9 °F 86% 30.32 in 10.0 mi West 6.9 mph - N/A   Clear
4:35 AM 17.4 °F 8.0 °F 14.5 °F 88% 30.32 in 10.0 mi WNW 6.9 mph - N/A   Clear
4:55 AM 17.6 °F 7.3 °F 14.9 °F 89% 30.32 in 10.0 mi WNW 8.1 mph - N/A   Clear
5:15 AM 18.1 °F 7.9 °F 15.3 °F 88% 30.32 in 10.0 mi West 8.1 mph - N/A   Clear
5:35 AM 18.5 °F 8.4 °F 15.4 °F 88% 30.32 in 10.0 mi WNW 8.1 mph - N/A   Clear
5:55 AM 18.5 °F 8.4 °F 15.4 °F 88% 30.33 in 10.0 mi West 8.1 mph - N/A   Clear
6:15 AM 18.5 °F 8.4 °F 15.4 °F 88% 30.33 in 10.0 mi WNW 8.1 mph - N/A   Clear
6:35 AM 18.3 °F 8.2 °F 15.3 °F 88% 30.33 in 10.0 mi WNW 8.1 mph - N/A   Clear
6:55 AM 18.0 °F 8.7 °F 15.3 °F 89% 30.32 in 10.0 mi WNW 6.9 mph - N/A   Clear
7:15 AM 18.0 °F 7.7 °F 15.3 °F 89% 30.32 in 10.0 mi WNW 8.1 mph - N/A   Clear
7:35 AM 19.2 °F 9.3 °F 16.2 °F 88% 30.32 in 10.0 mi WNW 8.1 mph - N/A   Clear
7:55 AM 20.7 °F 9.5 °F 17.1 °F 86% 30.33 in 10.0 mi WNW 10.4 mph - N/A   Clear
8:15 AM 20.8 °F 9.7 °F 16.7 °F 84% 30.34 in 10.0 mi WNW 10.4 mph - N/A   Clear
8:35 AM 21.6 °F 11.3 °F 17.2 °F 83% 30.33 in 10.0 mi NW 9.2 mph - N/A   Clear
8:55 AM 22.8 °F 13.6 °F 18.0 °F 82% 30.33 in 10.0 mi WNW 8.1 mph - N/A   Clear
9:15 AM 23.7 °F 15.6 °F 18.5 °F 80% 30.34 in 10.0 mi WNW 6.9 mph - N/A   Clear
9:35 AM 24.6 °F 18.8 °F 18.5 °F 78% 30.33 in 10.0 mi WNW 4.6 mph - N/A   Clear
9:55 AM 25.5 °F 19.9 °F 18.5 °F 75% 30.33 in 10.0 mi WNW 4.6 mph - N/A   Clear
10:15 AM 27.3 °F 22.0 °F 19.0 °F 71% 30.33 in 10.0 mi WNW 4.6 mph - N/A   Clear
10:35 AM 27.9 °F 21.5 °F 18.7 °F 68% 30.32 in 10.0 mi West 5.8 mph - N/A   Clear
10:55 AM 28.6 °F 24.8 °F 18.7 °F 66% 30.31 in 10.0 mi WNW 3.5 mph - N/A   Clear
11:15 AM 28.4 °F - 18.3 °F 66% 30.30 in 10.0 mi Calm Calm - N/A   Clear
11:35 AM 28.6 °F 22.4 °F 18.5 °F 66% 30.29 in 10.0 mi West 5.8 mph - N/A   Clear
11:55 AM 28.6 °F 24.8 °F 18.3 °F 65% 30.27 in 10.0 mi SW 3.5 mph - N/A   Scattered Clouds
12:15 PM 28.9 °F 22.8 °F 18.5 °F 65% 30.26 in 10.0 mi WSW 5.8 mph - N/A   Mostly Cloudy
12:35 PM 29.3 °F 22.3 °F 18.7 °F 65% 30.25 in 10.0 mi SW 6.9 mph - N/A   Overcast
12:55 PM 29.7 °F 22.8 °F 18.9 °F 64% 30.25 in 10.0 mi SW 6.9 mph - N/A   Overcast
1:15 PM 29.3 °F 22.3 °F 18.7 °F 65% 30.24 in 10.0 mi WSW 6.9 mph - N/A   Overcast
1:35 PM 29.7 °F 22.8 °F 19.2 °F 65% 30.22 in 10.0 mi SW 6.9 mph - N/A   Overcast
1:55 PM 29.8 °F 23.0 °F 19.2 °F 65% 30.22 in 10.0 mi SSW 6.9 mph - N/A   Scattered Clouds
2:15 PM 30.4 °F 22.9 °F 19.8 °F 65% 30.20 in 10.0 mi South 8.1 mph - N/A   Clear
2:35 PM 30.6 °F 24.7 °F 19.8 °F 64% 30.20 in 10.0 mi SW 5.8 mph - N/A   Clear
2:55 PM 30.7 °F 23.3 °F 19.4 °F 63% 30.18 in 10.0 mi SSW 8.1 mph - N/A   Clear
3:15 PM 30.7 °F 24.1 °F 19.8 °F 64% 30.18 in 10.0 mi South 6.9 mph - N/A   Clear
3:35 PM 30.9 °F 24.3 °F 19.9 °F 64% 30.17 in 10.0 mi South 6.9 mph - N/A   Scattered Clouds
3:55 PM 30.9 °F 24.3 °F 19.9 °F 64% 30.17 in 10.0 mi South 6.9 mph - N/A   Scattered Clouds
4:15 PM 30.7 °F 24.9 °F 20.3 °F 65% 30.15 in 10.0 mi South 5.8 mph - N/A   Scattered Clouds
4:35 PM 30.0 °F 24.1 °F 20.3 °F 67% 30.14 in 10.0 mi SSE 5.8 mph - N/A   Mostly Cloudy
4:55 PM 29.3 °F 24.3 °F 20.7 °F 70% 30.12 in 10.0 mi SSE 4.6 mph - N/A   Overcast
5:15 PM 29.5 °F 23.4 °F 21.0 °F 71% 30.11 in 10.0 mi SSE 5.8 mph - N/A   Overcast
5:35 PM 30.0 °F 23.2 °F 21.2 °F 70% 30.10 in 10.0 mi SSE 6.9 mph - N/A   Mostly Cloudy
5:55 PM 30.2 °F 22.6 °F 21.0 °F 69% 30.09 in 10.0 mi SSE 8.1 mph - N/A   Scattered Clouds
6:15 PM 30.2 °F 21.9 °F 21.2 °F 69% 30.09 in 10.0 mi SSE 9.2 mph - N/A   Scattered Clouds
6:35 PM 30.2 °F 21.9 °F 21.2 °F 69% 30.08 in 10.0 mi SSE 9.2 mph - N/A   Mostly Cloudy
6:55 PM 30.0 °F 21.1 °F 21.2 °F 70% 30.06 in 10.0 mi SSE 10.4 mph - N/A   Scattered Clouds
7:15 PM 30.2 °F 22.6 °F 21.4 °F 70% 30.07 in 10.0 mi SSE 8.1 mph - N/A   Clear
7:35 PM 30.2 °F 22.6 °F 21.7 °F 71% 30.05 in 10.0 mi South 8.1 mph - N/A   Clear
7:55 PM 30.2 °F 21.9 °F 21.9 °F 71% 30.05 in 10.0 mi South 9.2 mph - N/A   Clear
8:15 PM 30.2 °F 21.9 °F 21.7 °F 71% 30.04 in 10.0 mi South 9.2 mph - N/A   Clear
8:35 PM 30.6 °F 22.4 °F 21.9 °F 70% 30.04 in 10.0 mi South 9.2 mph - N/A   Clear
8:55 PM 30.7 °F 22.0 °F 21.6 °F 69% 30.03 in 10.0 mi South 10.4 mph - N/A   Clear
9:15 PM 30.4 °F 21.5 °F 21.4 °F 69% 30.03 in 10.0 mi South 10.4 mph - N/A   Clear
9:35 PM 30.2 °F 22.6 °F 21.9 °F 71% 30.02 in 10.0 mi South 8.1 mph - N/A   Clear
9:55 PM 30.0 °F 21.1 °F 21.7 °F 71% 30.01 in 10.0 mi SSE 10.4 mph - N/A   Clear
10:15 PM 30.0 °F 22.4 °F 22.1 °F 72% 30.00 in 10.0 mi South 8.1 mph - N/A   Clear
10:35 PM 30.0 °F 23.2 °F 22.1 °F 72% 30.00 in 10.0 mi South 6.9 mph - N/A   Clear
10:55 PM 30.0 °F 24.1 °F 22.1 °F 72% 30.00 in 10.0 mi SSE 5.8 mph - N/A   Clear
11:15 PM 30.0 °F 23.2 °F 22.6 °F 74% 29.99 in 10.0 mi South 6.9 mph - N/A   Clear
11:35 PM 29.8 °F 23.0 °F 22.3 °F 73% 29.98 in 10.0 mi SSE 6.9 mph - N/A   Clear
11:55 PM 30.0 °F 22.4 °F 22.6 °F 74% 29.97 in 10.0 mi South 8.1 mph - N/A   Clear